sat.trackr.live / text

‹ back to catalog

STARLINK-4326

NORAD 53081 · 2022-077AQ

PAYLOAD ACTIVE UNKNOWN

§ Identity

Operator
Country
US
Launch date
2022-07-11
Launch site
AFWTR
Launch vehicle
Mass (kg)
RCS (m²)

Purposes: comms

External: N2YO · Heavens-Above · Gunter

§ Orbital elements

Epoch: 2026-09-19T22:48:15.679008Z

Period
93.90 min
Inclination
97.2836°
Eccentricity
0.0001428
Mean motion
15.33478930 rev/d
Perigee alt
464.5 km
Apogee alt
466.4 km
Semi-major
6,843.6 km
B*
-2.2565e-4
RAAN
77.8038°
Arg perigee
98.9935°
Mean anomaly
261.1469°
Rev number
23,021

§ Raw data

STARLINK-43261 53081U 22077AQ  26262.95018147 -.00007361  00000+0 -22565-3 0  99992 53081  97.2836  77.8038 0001428  98.9935 261.1469 15.33478930230215

JSON: /api/v1/satellites/53081 · /tle

For live sub-satellite position, see the globe view (requires WebGL).

§ Visibility from observer

Set your observer location to see the next 7 days of passes ≥ 10°. The values pass through the URL so the page stays shareable.

No JS? Fill the form by hand. The geolocation button needs JavaScript.